CAPE
159 100 245 705 415 251 174 149 70 0 37 37 0 8 108 586 165 43 288 175 149 269 675 797 1761 1145 905 805 898 973 831 595 1046 1110 1311 1494 1188 1870 2238 2176 2178 2294 2231 2189 2115 2060 2071 1978 1839
62 144 586 1214 303 76 115 74 57 174 91 80 271 409 464 523 267 294 268 241 169 366 553 653 1743 1529 927 807 859 1092 919 727 740 1318 1143 1663 2217 2301 2300 1968 2050 2070 2115 2065 1888 1834 1675 1662 1696
74 348 448 598 202 87 125 123 134 78 21 94 398 391 369 314 172 159 400 336 434 569 626 808 1401 1052 807 949 844 1044 722 1060 1213 1236 1338 1728 2235 2255 2347 2203 2213 1968 2132 2004 1755 1747 1653 1656 1940
261 226 648 369 112 67 46 106 41 50 78 244 292 398 348 269 97 398 491 375 471 765 844 1403 1526 1471 933 944 1063 1136 1041 1220 1768 1531 1577 1644 1927 2154 2197 2076 1932 1801 1934 1751 1607 1633 1611 1768 1875
190 234 455 280 75 37 43 19 19 24 46 170 161 163 96 464 637 470 572 558 730 803 1119 1627 2093 1548 1180 1141 1319 1321 1443 1743 1755 2105 2223 2280 1958 1965 1909 2210 2071 1604 1373 1479 1604 1574 1626 1826 1915
152 356 387 238 16 22 33 17 21 16 34 96 82 45 168 599 474 415 539 615 641 857 1030 885 1532 1842 1486 1221 1509 1665 1846 1883 1998 2215 2320 2182 1963 2436 2365 2088 1598 1192 1275 1423 1479 1472 1740 2255 1904
159 244 306 111 8 11 18 0 11 7 0 0 43 2 261 129 227 356 499 634 775 1103 847 598 946 1279 1616 1597 1625 1774 1968 1901 2248 2169 2322 2376 2039 1888 2231 1939 1578 1507 1620 1642 1636 1651 1766 1919 1959
168 129 79 192 56 9 4 0 0 0 0 0 0 2 79 60 128 323 455 595 667 813 820 666 1326 1311 1472 1732 1751 1757 2019 2186 2184 2421 2417 2355 2110 2244 2370 2225 2263 1819 1715 1627 1587 1620 1572 1687 1915
3 90 38 103 234 1 1 0 0 0 0 0 25 13 38 54 61 145 185 264 799 985 804 726 1142 1523 1661 1642 1505 1820 1873 1921 2143 2261 2194 2254 1881 1854 1616 1977 1789 1756 1612 1617 1681 1711 1748 1930 1502
0 3 4 50 117 47 58 0 0 0 0 23 95 133 187 180 9 0 0 50 316 385 570 699 943 1094 1313 1069 1530 1581 1586 1764 1813 2209 2555 2130 1997 1996 1469 1666 1979 1911 1922 1816 1681 1538 1331 1168 1243
1 52 16 10 40 72 108 0 0 0 0 0 44 102 146 137 47 44 0 89 189 317 608 754 887 1070 997 1087 1556 1451 1576 1883 1868 2275 2171 1913 1564 1642 1397 1527 1352 1324 1203 599 628 992 1143 1301 1367
345 7 0 0 24 203 349 112 0 0 0 0 3 82 108 153 114 33 24 31 91 325 555 661 938 1034 1363 1247 1130 1560 1453 1782 1551 1624 1735 1542 1052 1309 1435 1261 1421 1117 935 1103 1263 1433 1765 1671 1646
360 121 166 259 476 527 622 492 148 0 0 0 0 54 101 122 152 53 2 17 98 223 422 573 998 1103 1375 1301 1410 1554 1489 1406 1204 1160 1170 1106 1100 1141 1108 1038 897 804 693 993 1516 1602 1799 1903 1850
331 193 194 118 63 6 629 780 603 106 0 0 0 0 69 81 108 38 16 19 76 141 299 503 805 1028 1123 1038 1504 1237 1324 1216 1020 615 682 1070 1146 1339 1082 764 445 506 901 1364 1441 1707 1897 1715 1732
278 291 51 32 16 29 467 35 153 0 0 0 0 0 28 67 37 0 0 0 24 91 175 375 577 693 926 1131 1343 944 826 456 480 482 974 1145 1380 1510 1538 726 318 731 1477 1723 1848 1776 1412 1878 1814
179 148 24 165 15 93 546 179 1 4 1 0 0 0 0 58 30 9 0 0 0 14 134 280 234 367 683 812 1077 644 452 626 905 886 1029 1114 1289 1486 1565 626 527 1401 1698 1510 1635 1537 1804 2334 1862
0 0 0 6 24 197 495 465 17 0 5 0 4 0 8 13 31 45 0 0 0 0 42 245 374 364 540 695 581 583 707 892 943 1038 922 1082 1153 1274 1415 1041 1213 1927 1832 1517 1423 1542 2719 2212 1815
0 0 0 0 0 43 126 302 146 0 0 1 8 6 0 0 0 4 3 0 4 0 17 147 373 527 662 638 617 478 670 754 855 866 925 1134 1087 1354 1568 1481 1688 1968 1628 1452 1418 2947 2130 1803 2351
0 0 0 0 0 3 0 3 9 0 0 0 0 0 3 0 0 0 0 0 0 0 0 142 376 601 699 610 459 482 508 695 785 942 1025 1176 1245 1371 1692 1470 1805 1743 1543 1569 1911 2252 2382 1794 2316
0 0 0 0 0 0 0 0 0 77 0 0 0 0 0 0 0 0 0 0 0 41 40 93 364 599 631 556 538 355 344 644 809 1008 1147 1143 1277 1385 1544 1912 2029 2183 1563 1950 1850 2432 1988 1583 2132
0 0 0 0 0 0 0 17 176 122 10 1 0 0 0 0 0 0 0 0 0 12 140 153 319 504 671 631 615 820 757 936 955 1126 1166 1233 1366 1396 1643 2009 2157 2473 2054 1602 1965 2367 2286 1655 1707
0 0 0 0 0 0 0 0 0 220 163 49 20 0 0 0 0 0 0 0 0 0 99 310 506 527 619 791 837 1151 868 870 814 1072 1198 1429 1528 1532 1555 1873 2125 2577 2237 2184 2228 2223 2264 2243 1391
0 0 0 0 0 0 0 0 0 102 364 203 92 64 8 5 3 1 0 0 0 0 78 227 700 780 827 876 1275 1249 1326 1226 1251 1143 1452 1815 1677 1599 1321 1558 1955 2454 2680 2650 2621 2810 2455 2005 1785
0 0 0 0 0 0 0 0 0 0 3 91 339 143 22 6 9 4 3 0 24 7 72 169 743 1257 917 910 1066 1584 2026 1556 1435 1516 1389 1284 1085 1171 1658 1517 1994 2322 2536 2887 2647 3033 2792 2559 2437
0 0 0 0 0 0 0 0 0 0 4 41 0 28 111 56 7 6 0 0 45 71 121 179 708 900 724 811 1094 1195 1814 2063 1877 1975 1719 1871 1311 982 1686 1850 2003 2005 2565 2927 2742 2875 2821 2714 2422
0 0 0 0 0 0 0 0 0 0 0 0 0 0 0 1 22 18 12 32 80 102 270 256 556 901 807 726 1313 1736 2052 1333 1526 1947 1643 1779 1557 1347 1923 1746 1702 2001 2405 2634 2807 2511 2525 2527 2519
0 0 0 0 0 0 0 0 0 0 0 0 0 0 0 0 23 1 1 2 102 277 432 393 759 874 896 723 1304 1683 1772 1930 1765 2165 1995 1803 2193 1715 1977 1709 1575 1720 2239 2478 2689 2349 2416 2209 2214
0 0 0 0 0 0 0 0 0 0 0 0 0 0 0 11 19 490 16 0 24 119 366 285 392 836 734 608 1017 1213 1595 1851 2096 2043 1848 1922 1987 2110 1789 1988 1911 2108 2414 2353 2513 2217 2223 2363 2191
0 0 0 0 0 0 0 0 0 0 0 0 0 0 0 3 358 759 360 6 10 9 93 275 308 699 909 954 1044 1220 1091 1414 1596 1617 1865 1975 2018 2217 2191 2213 2230 2333 2384 2463 2448 2391 2212 2316 2480
0 0 0 0 0 0 0 0 0 0 0 0 0 0 0 0 412 803 643 46 5 125 182 276 538 787 1018 1127 1257 1333 1211 1412 1239 1782 1660 1808 2038 2149 2195 2166 2210 2298 2323 2420 2474 2395 1849 2169 2451
CIN
-193 -253 -210 -121 -89 -45 -11 -16 -43 0 -70 -98 0 -29 -55 -48 -63 -53 -87 -82 -81 -41 -5 -1 0 0 -1 -1 -3 -5 -3 -2 -3 -2 0 0 -3 0 0 0 0 0 0 0 0 0 0 -2 -4
-274 -213 -125 -73 -58 -3 -12 -30 -31 -46 -88 -93 -58 -40 -39 -45 -99 -94 -86 -65 -56 -21 -9 -6 -1 0 -7 -8 -7 -1 -3 -3 -2 -1 -4 -1 0 0 0 0 -1 0 0 -1 0 0 -4 -5 -3
-273 -161 -139 -89 -59 -26 -15 -45 -48 -66 -49 -72 -42 -46 -48 -70 -121 -101 -54 -50 -22 -13 -16 -11 0 -2 -17 -8 -9 -3 -4 -4 -3 -6 -2 -1 0 0 0 -1 0 -1 -1 -3 -3 0 -1 -2 -2
-180 -192 -114 -38 -29 -44 -57 -66 -59 -61 -58 -47 -37 -34 -43 -66 -102 -41 -30 -25 -4 0 0 0 0 0 -13 -9 -11 -7 -6 -3 -3 -3 -4 -4 -1 -1 0 0 0 -6 -4 -7 -7 0 -5 -5 -2
-199 -182 -43 -32 -48 -62 -85 -65 -71 -67 -57 -40 -41 -52 -86 -15 -1 -25 -8 0 0 0 0 0 0 0 -2 -3 -2 -3 -5 -3 -4 -2 -3 -1 -2 0 0 0 0 -4 -16 -12 -2 -12 -16 -7 -4
-167 -138 -17 -33 -79 -94 -85 -68 -59 -55 -43 -45 -45 -69 -49 0 -12 -16 -8 0 0 0 0 0 0 0 0 0 0 -1 -1 -2 -5 -4 -1 0 0 -1 -1 0 0 -22 -18 -25 -20 -21 -16 -5 -9
-158 -106 -55 -59 -76 -73 -106 0 -54 -40 0 0 -75 0 -23 -38 -15 -20 -2 0 0 0 0 -7 0 0 0 0 0 -1 0 -1 0 -5 0 -1 0 0 0 0 -1 -4 -16 -22 -22 -29 -24 -12 -6
-151 -130 -110 -67 -36 -32 -76 0 0 0 0 0 0 -25 -59 -66 -37 -14 0 0 0 0 0 -7 0 0 0 0 0 -1 -1 -1 -1 0 0 -2 -1 0 0 -1 0 -6 -22 -23 -34 -40 -33 -30 -18
-200 -75 -90 -74 -18 -19 -10 0 0 0 0 0 -81 -86 -36 -83 -57 -22 -16 -2 0 0 0 -4 0 0 0 0 0 -1 -2 0 0 0 0 -3 0 0 0 0 -6 -22 -27 -34 -39 -40 -39 -37 -53
0 -28 -110 -90 -74 -79 -64 0 0 0 0 -54 -55 -40 -18 -22 -34 0 0 -62 -7 -1 0 0 0 0 0 0 0 0 0 0 0 0 0 0 0 0 -2 -4 -6 -19 -30 -41 -50 -62 -73 -70 -30
-14 -104 -163 -129 -138 -118 -59 0 0 0 0 0 -95 -57 -33 -30 -51 -54 0 -58 -44 -13 0 0 0 0 0 0 0 0 0 0 0 0 0 0 -2 -4 -10 -8 -21 -30 -56 -46 -64 -40 -40 -53 -48
-20 -161 0 -6 -123 -75 -65 -76 0 0 0 0 -6 -68 -52 -37 -39 -81 -96 -76 -54 -23 -4 0 0 0 0 0 0 0 0 0 0 0 0 -2 -24 -24 -22 -21 -27 -38 -42 -40 -37 -25 -37 -38 -50
-42 -88 -97 -79 -43 -38 -39 -47 -47 0 0 0 0 -64 -47 -31 -24 -65 -40 -60 -35 -30 -14 -1 0 0 0 0 0 0 0 -1 -1 -4 -12 -27 -22 -28 -36 -44 -46 -50 -59 -40 -35 -40 -43 -47 -30
-49 -85 -90 -115 -107 -149 -30 -31 -34 -39 0 0 0 0 -38 -44 -50 -108 -117 -84 -53 -43 -18 -1 0 0 0 -1 0 -2 -1 0 -4 -32 -36 -31 -27 -26 -41 -60 -65 -67 -53 -46 -50 -53 -43 -35 -20
-75 -59 -104 -154 -253 -145 -90 -100 -77 0 0 0 0 0 -23 -37 -85 0 0 0 -83 -63 -42 -19 -3 -2 0 0 0 -12 -25 -38 -37 -39 -29 -23 -22 -24 -38 -60 -90 -50 -44 -58 -46 -44 -29 -19 -20
-68 -90 -78 -73 -292 -192 -44 -71 -133 -173 -30 0 0 0 0 -136 -62 -40 0 0 0 -75 -72 -33 -25 -20 -6 -2 0 -19 -47 -28 -10 -16 -15 -25 -28 -34 -41 -56 -55 -37 -34 -37 -32 -23 -12 -10 -19
0 0 0 -44 -171 -128 -70 -49 -149 0 -155 0 -128 0 -66 -25 -96 -71 0 0 0 0 -74 -50 -29 -27 -18 -5 -9 -12 -9 -7 -11 -8 -19 -29 -28 -36 -41 -37 -32 -38 -23 -33 -34 -21 -21 -15 -14
0 0 0 0 -30 -247 -97 -68 -96 0 0 -138 -150 -131 0 0 0 -9 -7 0 -13 0 -62 -57 -34 -21 -21 -9 -7 -5 -2 -4 -7 -12 -17 -19 -24 -31 -31 -27 -28 -30 -22 -27 -28 -20 -27 -35 -24
0 0 0 0 0 -118 -65 -129 -136 0 0 0 0 -1 -139 0 0 0 0 0 0 0 0 -70 -43 -28 -11 -7 -8 -6 -11 -3 -6 -9 -22 -19 -22 -25 -25 -18 -16 -26 -30 -35 -39 -24 -23 -10 -24
0 0 0 0 0 0 0 0 0 -173 0 0 0 0 0 0 0 0 0 0 0 -93 -93 -82 -63 -45 -31 -16 -28 -34 -43 -15 -11 -9 -16 -21 -21 -25 -22 -16 -9 -18 -20 -33 -36 -33 -11 -15 -38
0 0 0 0 0 0 0 -58 -103 -164 -230 -184 0 0 0 0 0 0 0 0 0 -58 -85 -84 -81 -65 -52 -41 -27 -17 -15 -9 -11 -6 -8 -18 -23 -28 -26 -17 -15 -18 -35 -15 -30 -30 -27 -6 -27
0 0 0 0 0 0 0 0 0 -74 -128 -231 -248 0 0 0 0 0 0 0 0 0 -112 -83 -82 -76 -64 -47 -27 -12 -13 -3 -5 -7 -7 -10 -20 -22 -24 -19 -17 -15 -19 -28 -21 -28 -34 -38 -14
0 0 0 0 0 0 0 0 0 -132 -88 -137 -167 -213 -99 -240 -246 -162 0 0 0 0 -140 -108 -89 -73 -53 -48 -19 -17 -4 -6 -7 -4 -6 -7 -13 -19 -20 -19 -12 -13 -11 -26 -26 -27 -36 -25 -18
0 0 0 0 0 0 0 0 0 0 -26 -87 -91 -156 -205 -212 -219 -262 -205 -6 -297 -252 -174 -123 -90 -71 -71 -58 -38 -11 -3 -11 -7 -8 -4 -6 -14 -16 -26 -22 -20 -20 -18 -19 -19 -22 -34 -29 -22
0 0 0 0 0 0 0 0 0 0 -26 -48 0 -44 -126 -184 -143 -169 0 0 -285 -259 -238 -194 -104 -87 -91 -65 -37 -31 -9 -10 -18 -14 -10 -5 -19 -31 -20 -29 -28 -19 -23 -22 -27 -24 -24 -21 -16
0 0 0 0 0 0 0 0 0 0 0 0 0 0 0 -20 -198 -256 -282 -322 -293 -255 -214 -233 -172 -102 -94 -84 -40 -18 -5 -18 -14 -19 -14 -12 -11 -21 -23 -37 -32 -27 -21 -17 -21 -15 -15 -28 -19
0 0 0 0 0 0 0 0 0 0 0 0 0 0 0 0 -232 -35 -168 -343 -315 -233 -214 -224 -182 -140 -110 -116 -57 -27 -20 -6 -10 -15 -31 -17 -22 -19 -30 -33 -32 -29 -20 -19 -17 -9 -19 -28 -26
0 0 0 0 0 0 0 0 0 0 0 0 0 0 0 -386 -347 -263 -286 0 -367 -297 -217 -220 -207 -184 -164 -149 -83 -63 -42 -24 -15 -22 -30 -25 -28 -39 -34 -37 -27 -22 -18 -18 -18 -9 -13 -20 -14
0 0 0 0 0 0 0 0 0 0 0 0 0 0 0 -367 -323 -291 -245 -262 -412 -215 -251 -204 -211 -170 -143 -120 -104 -75 -67 -40 -30 -23 -26 -28 -33 -34 -37 -35 -27 -23 -21 -22 -21 -19 -16 -14 -15
0 0 0 0 0 0 0 0 0 0 0 0 0 0 0 0 -312 -313 -255 -381 -410 -375 -321 -263 -199 -167 -162 -162 -142 -111 -89 -47 -34 -20 -23 -28 -28 -33 -40 -36 -39 -33 -33 -31 -25 -17 -13 -14 -13
Wind_Speed
7 4 0 1 1 2 4 4 2 12 8 2 13 2 6 6 2 2 6 6 14 12 9 9 7 8 8 8 9 11 13 14 16 13 12 12 12 12 12 13 13 14 15 15 14 14 14 13 12
6 2 1 1 3 5 5 5 9 4 7 16 10 8 3 5 4 8 8 11 14 12 9 8 8 7 8 8 8 9 14 15 15 11 13 12 12 12 13 12 13 13 13 13 12 13 13 11 9
7 2 2 2 3 3 4 7 11 14 10 6 5 6 3 4 8 12 9 14 14 12 9 8 9 8 8 8 7 9 12 14 13 12 10 10 12 12 13 14 14 12 12 12 12 13 13 12 13
3 1 2 3 8 6 4 10 12 11 6 5 9 8 5 1 10 7 14 14 13 11 9 10 9 8 8 8 7 8 9 10 10 9 10 10 12 13 12 13 12 10 10 11 10 11 11 11 11
2 1 3 6 8 5 9 11 7 4 4 6 1 6 9 4 8 15 14 13 14 12 10 10 9 9 7 8 7 7 7 9 8 9 9 11 12 12 12 10 11 9 9 9 9 11 11 9 10
0 1 2 6 6 7 6 4 5 7 7 8 11 10 4 7 13 14 13 12 12 11 10 9 7 8 8 7 7 7 7 7 8 9 10 10 9 11 10 11 10 10 9 9 9 10 11 11 10
2 2 3 7 10 4 4 4 4 6 8 7 9 7 4 9 13 13 12 12 10 9 9 8 8 8 8 7 7 7 8 9 8 9 9 8 9 9 11 9 10 9 9 8 7 9 11 10 7
2 3 3 2 4 5 5 3 10 8 5 11 7 6 8 11 14 13 12 11 10 9 8 7 7 7 7 8 8 7 8 7 6 7 8 8 8 10 10 7 8 9 8 6 7 9 7 7 7
2 2 3 3 2 5 5 5 4 3 11 3 2 9 12 17 15 14 12 10 9 8 8 7 8 7 7 6 6 6 7 7 7 6 7 7 5 6 6 8 8 8 6 6 7 6 5 5 4
2 2 3 2 4 4 1 7 6 6 9 5 12 15 18 17 16 15 14 12 12 10 9 7 8 8 7 6 5 5 6 4 3 4 5 3 5 4 5 6 6 5 6 6 5 5 5 4 4
1 3 7 3 7 4 3 8 3 12 7 6 17 19 18 16 14 14 14 13 13 11 8 8 8 8 8 6 4 4 3 3 3 5 3 4 3 3 3 3 3 2 4 2 3 4 5 6 5
2 4 3 3 4 3 6 4 5 10 2 10 18 19 18 17 15 14 14 13 13 12 12 11 9 8 7 5 5 4 4 3 3 3 3 2 2 2 2 2 2 1 2 4 4 4 6 6 6
1 3 4 4 6 5 1 5 2 11 8 18 17 17 17 15 14 13 12 12 12 13 13 12 10 9 7 7 5 4 4 4 3 3 3 2 2 2 1 1 1 2 2 3 4 5 5 5 6
3 3 4 3 1 2 2 3 6 9 15 18 18 18 15 16 15 12 13 14 13 13 12 11 11 9 8 6 7 5 4 4 4 3 3 4 2 1 2 1 1 1 2 3 4 4 4 5 5
6 2 2 6 1 1 4 3 5 13 17 19 17 15 14 14 13 14 15 15 15 13 13 12 11 10 9 8 7 6 5 5 4 4 4 4 4 3 2 1 1 2 3 4 3 4 4 5 4
3 2 4 4 1 2 1 1 6 15 18 18 19 15 14 15 16 14 13 13 14 13 14 12 11 11 11 8 7 6 5 5 4 5 4 5 5 4 3 1 1 3 4 4 4 5 6 5 4
2 4 5 3 4 1 4 0 3 14 15 17 17 17 15 15 15 14 14 14 14 14 14 13 13 13 12 9 7 7 6 6 5 5 5 5 5 5 4 1 1 3 4 4 4 4 5 5 5
4 3 3 4 2 4 7 12 2 13 15 17 17 16 17 16 18 16 16 15 14 14 14 13 12 12 12 8 6 5 5 5 5 5 5 6 5 5 4 3 3 3 3 3 3 5 5 5 5
2 1 6 4 3 4 9 16 10 13 15 15 17 17 17 18 17 16 17 16 15 14 14 15 14 13 10 9 8 7 7 6 6 6 7 6 6 6 5 3 3 2 3 3 3 4 4 4 5
3 1 2 4 1 4 10 14 12 15 20 20 20 19 19 18 17 17 17 17 17 17 17 15 15 14 12 9 8 6 7 7 6 6 7 8 8 7 6 5 3 3 3 3 2 3 3 2 4
2 4 2 4 7 4 7 5 3 6 14 17 19 19 19 21 21 19 19 19 19 18 18 17 16 15 14 13 8 6 6 3 6 6 6 7 8 8 8 6 4 4 4 3 2 1 2 4 2
4 2 7 9 7 4 5 5 4 6 14 18 20 20 21 22 20 20 20 20 20 20 19 18 16 16 14 14 11 13 9 9 7 7 7 6 8 8 9 8 7 5 4 4 2 2 2 2 3
3 11 8 8 7 4 5 6 1 2 8 16 19 23 23 23 23 23 23 23 23 20 18 18 17 16 15 15 14 12 11 8 8 7 9 9 7 8 9 8 7 6 5 3 4 4 3 3 3
8 3 1 2 5 11 11 9 8 6 7 5 13 17 21 23 24 24 21 20 19 19 19 18 17 16 16 16 17 15 13 11 9 9 9 8 8 8 10 10 8 6 5 5 5 4 5 4 3
10 3 3 5 8 11 4 7 8 4 2 5 12 12 17 22 23 23 24 22 21 22 22 19 18 18 18 18 17 17 16 14 13 11 9 9 8 8 9 10 9 7 6 6 5 4 5 5 4
5 4 3 5 4 5 1 7 2 1 8 11 13 13 15 13 18 24 26 24 23 24 23 23 21 18 18 19 18 16 16 12 11 11 9 9 9 9 10 11 11 10 9 7 6 6 6 5 6
2 2 3 6 0 5 5 5 9 2 11 18 19 18 18 18 15 20 24 25 23 23 24 24 21 21 20 21 17 16 15 15 12 12 11 9 9 9 10 11 11 11 10 10 9 8 8 7 7
3 2 4 3 4 6 4 6 7 9 17 20 23 24 22 20 17 19 21 23 23 24 23 23 24 22 22 22 17 15 16 16 14 12 13 11 10 10 10 10 11 11 11 11 10 9 8 8 7
2 4 2 2 4 5 5 5 2 10 14 20 21 21 21 23 21 21 17 21 22 22 22 23 23 22 20 19 18 17 16 17 15 14 14 13 12 11 12 11 12 11 12 12 11 11 10 10 9
3 4 3 3 4 3 5 8 11 11 17 17 22 22 23 22 21 21 17 18 20 22 22 23 21 20 20 19 18 19 18 16 17 15 16 15 14 13 12 12 12 12 13 12 13 12 11 12 13
Wind_Direction
150 131 351 237 102 62 74 55 79 120 131 90 150 190 141 43 44 51 125 135 135 139 144 148 133 133 118 106 98 97 96 107 108 112 115 110 107 102 91 90 96 97 94 93 90 89 86 82 80
143 135 264 302 73 92 82 84 116 63 111 122 106 109 85 90 96 124 133 145 139 138 142 144 133 132 124 107 99 96 101 104 117 107 105 106 102 98 95 100 93 97 92 92 90 83 77 73 73
167 299 300 24 68 60 90 98 108 111 125 130 109 65 63 83 120 133 127 141 137 141 146 141 139 135 132 113 102 92 96 105 107 108 101 101 100 103 93 95 92 88 87 81 78 77 75 69 67
181 165 170 51 74 58 71 120 121 121 105 66 113 82 85 52 133 129 139 139 136 137 139 136 140 132 131 120 104 101 102 107 106 111 122 108 103 94 89 88 88 84 76 76 70 70 69 66 78
293 193 66 94 58 66 105 115 113 102 85 114 62 98 103 89 115 134 140 142 139 142 140 143 140 141 134 130 129 121 113 109 116 112 106 93 93 88 88 89 85 80 74 72 66 63 55 63 87
123 281 78 79 88 99 96 80 76 93 101 112 107 110 90 118 136 141 142 142 143 144 146 146 136 134 135 138 140 137 125 127 122 111 98 92 87 93 93 86 85 80 79 79 68 60 57 61 91
84 74 78 92 112 95 128 110 75 106 126 110 125 108 97 138 139 140 142 142 144 148 150 151 153 146 141 141 140 150 137 126 123 115 107 102 102 98 87 89 89 88 81 77 72 60 56 61 98
90 82 68 68 123 102 135 89 122 109 87 120 137 155 160 157 148 142 142 143 150 160 158 162 158 149 156 151 153 151 135 130 130 126 117 113 102 93 86 104 85 77 75 73 61 53 48 51 65
352 85 101 68 124 102 109 141 125 87 138 94 76 151 138 148 151 145 148 155 157 164 170 173 166 158 148 153 141 142 136 137 137 139 114 108 99 102 109 71 76 68 65 54 47 38 24 25 73
37 66 85 84 118 104 207 160 141 130 153 88 102 113 136 151 160 157 165 169 175 174 181 184 175 162 157 159 145 143 146 160 145 101 94 118 99 87 84 83 70 58 48 41 23 10 345 307 351
31 77 153 147 153 125 99 136 143 145 200 180 151 144 150 159 167 167 176 179 181 178 182 186 182 175 170 155 158 155 153 146 140 101 89 93 109 93 103 100 92 69 50 22 359 352 355 346 338
4 90 132 149 146 128 121 135 132 173 312 153 152 153 156 167 174 178 180 179 183 186 187 183 188 184 181 168 169 160 173 165 182 134 122 131 150 130 90 82 74 65 35 1 359 346 343 342 338
328 124 126 142 106 88 197 169 147 183 108 137 148 159 169 175 179 184 184 180 186 193 191 187 183 187 188 180 165 177 190 183 184 184 154 191 156 136 144 111 71 37 360 0 345 335 334 339 345
168 118 135 164 147 146 39 181 185 181 142 147 161 169 178 180 182 181 186 187 190 194 196 190 193 191 195 199 189 186 198 193 206 208 202 209 246 206 193 155 96 40 347 343 327 323 329 338 347
161 105 147 100 190 12 314 172 212 153 159 161 171 180 183 188 183 191 189 190 189 194 195 196 199 195 200 210 207 205 204 200 210 215 223 245 253 230 238 101 352 7 341 316 318 311 333 335 336
307 296 20 56 333 47 327 22 171 164 164 173 174 184 189 194 199 199 194 192 190 190 195 196 197 196 202 210 212 215 212 207 219 217 219 237 247 243 236 210 358 352 317 338 340 349 342 344 351
45 349 26 359 180 15 259 248 135 174 182 176 184 189 192 198 206 206 204 198 189 191 188 195 197 198 201 206 211 216 216 222 223 223 227 214 232 241 253 259 309 328 317 324 334 344 340 339 343
47 345 355 332 11 216 256 259 235 188 193 188 189 197 195 201 208 203 208 206 199 192 191 193 198 201 197 197 202 216 224 227 220 211 219 209 220 222 231 256 287 306 298 295 344 351 351 327 342
99 349 329 330 12 263 265 270 262 198 204 200 199 202 208 205 207 208 204 205 203 198 195 195 195 198 195 193 197 207 219 216 217 210 207 205 214 214 218 240 247 241 266 321 351 346 341 347 359
52 30 324 291 320 281 292 274 274 206 206 205 203 207 208 211 212 207 205 202 204 202 201 197 201 196 199 198 194 206 205 213 213 203 197 204 208 213 223 238 245 276 268 261 319 342 328 331 17
41 295 322 282 318 211 284 270 245 232 222 218 219 218 214 213 212 210 202 203 204 205 202 202 199 200 201 201 191 186 183 200 194 197 202 201 206 211 215 218 238 251 246 257 252 258 281 334 23
301 344 308 288 318 286 355 300 235 216 223 218 222 220 222 217 214 212 206 202 206 208 204 203 199 197 201 195 191 199 197 200 205 203 204 204 205 210 212 221 230 235 236 225 231 203 260 263 322
340 317 279 279 270 294 249 244 209 189 238 230 227 225 226 222 220 215 209 204 203 206 204 204 196 197 198 194 201 197 208 203 198 205 205 208 203 216 221 224 238 243 240 237 239 208 222 225 281
318 277 246 205 242 248 246 243 232 227 239 269 241 237 235 231 224 222 213 210 210 204 204 203 196 195 195 197 202 206 203 203 203 202 206 210 211 208 215 220 228 242 254 251 241 231 221 231 248
1 337 251 217 211 248 138 253 265 237 290 318 329 286 251 235 227 222 214 207 205 200 201 199 197 199 197 203 205 209 211 206 203 205 209 206 207 208 208 211 222 232 238 240 223 220 233 226 244
343 331 341 275 271 319 160 243 153 156 3 27 4 352 338 288 240 228 217 207 201 201 197 193 193 198 197 202 205 207 212 213 211 209 213 212 214 212 208 210 215 222 231 235 227 226 234 232 234
85 197 1 281 187 266 249 266 267 2 18 4 359 359 355 340 311 246 229 215 204 200 199 196 191 196 196 200 202 207 209 216 214 211 211 215 221 222 220 214 217 219 221 224 226 236 233 230 237
329 12 216 187 254 245 226 268 249 10 358 351 350 346 342 334 318 309 237 219 209 204 198 199 198 194 195 199 200 202 206 209 212 211 212 215 218 218 214 215 219 220 220 221 223 235 239 238 236
209 170 135 297 280 277 287 242 139 31 356 338 334 333 333 332 328 319 265 221 212 206 201 202 202 197 198 196 198 201 205 209 210 213 212 211 215 213 216 216 218 222 226 224 222 235 242 237 246
242 92 60 267 177 253 293 261 303 340 339 337 330 330 330 328 328 326 289 222 207 207 203 201 200 200 195 194 196 200 202 205 210 214 214 213 213 214 216 219 221 225 226 225 223 231 237 237 241